Dades meteomassalio
Diari Summary for Marc 17, 2017 Units:  English    Metric   Both
« Previous Day
Next Day »
Diari Semanal Mensual Anual Personalitzat
  Maxima: Minima: Mijana:
Temperatura: TemperatureC °F 1.8 °F 11.1 °F
Rosada: DewpointC °F -1.4 °F 2.2 °F
Humitat: Humidity % 22 % 60 %
Velocitat del vent: WindSpeedKMH mph 0.0 mph 3 mph
Racha vent: WindSpeedGustKMH mph - -
Vent:- - East
Pressio: PressurehPa in 1020.5 in -
Pluja: 0.0 in    
Historical Graphs
 
 
Tabular Data for Marc 17, 2017
Time Temperature Dew Point Pressure Wind Wind Speed Wind Gust Humidity Rainfall Rate (Hourly) solar Conditions
TemperatureC °F DewpointC °F PressurehPa in Calm     Humidity % HourlyPrecipMM in SolarRadiationWatts/m^2 W/m2 Conditions
00:05 6.4 °F 3.2 °F 1023.2 in Calm     80 % 0.0 in 0.0 W/m2 RA
00:10 6.3 °F 3.1 °F 1023.2 in Calm     80 % 0.0 in 0.0 W/m2 CLR
00:15 6.2 °F 3.0 °F 1023.6 in Calm     80 % 0.0 in 0.0 W/m2 CLR
00:20 6.1 °F 3.1 °F 1023.6 in Calm     81 % 0.0 in 0.0 W/m2 CLR
00:25 6.0 °F 3.0 °F 1023.6 in Calm     81 % 0.0 in 0.0 W/m2 CLR
00:30 5.9 °F 3.1 °F 1023.6 in Calm     82 % 0.0 in 0.0 W/m2 CLR
00:35 5.8 °F 2.9 °F 1023.6 in Calm     82 % 0.0 in 0.0 W/m2 CLR
00:40 5.8 °F 2.8 °F 1023.6 in Calm     81 % 0.0 in 0.0 W/m2 CLR
00:45 5.8 °F 2.6 °F 1023.6 in Calm     80 % 0.0 in 0.0 W/m2 CLR
00:50 5.7 °F 2.6 °F 1023.6 in Calm     80 % 0.0 in 0.0 W/m2 CLR
00:54 5.6 °F 2.4 °F 1023.6 in Calm     80 % 0.0 in 0.0 W/m2 CLR
01:00 5.6 °F 2.3 °F 1023.6 in Calm     79 % 0.0 in 0.0 W/m2 CLR
01:05 5.7 °F 2.3 °F 1023.6 in Calm     79 % 0.0 in 0.0 W/m2 CLR
01:10 5.6 °F 2.4 °F 1023.6 in Calm     80 % 0.0 in 0.0 W/m2 CLR
01:15 5.4 °F 2.3 °F 1023.6 in Calm     80 % 0.0 in 0.0 W/m2 CLR
01:20 5.3 °F 2.3 °F 1023.6 in Calm     81 % 0.0 in 0.0 W/m2 CLR
01:25 5.2 °F 2.2 °F 1023.6 in Calm     81 % 0.0 in 0.0 W/m2 CLR
01:30 5.1 °F 2.2 °F 1023.6 in Calm     82 % 0.0 in 0.0 W/m2 CLR
01:35 4.9 °F 2.1 °F 1023.6 in Calm     82 % 0.0 in 0.0 W/m2 CLR
01:40 4.8 °F 2.0 °F 1023.6 in Calm     82 % 0.0 in 0.0 W/m2 CLR
01:45 4.7 °F 2.1 °F 1023.6 in Calm     83 % 0.0 in 0.0 W/m2 CLR
01:50 4.6 °F 1.9 °F 1023.6 in Calm     83 % 0.0 in 0.0 W/m2 CLR
01:55 4.5 °F 2.1 °F 1023.6 in Calm     84 % 0.0 in 0.0 W/m2 CLR
02:00 4.4 °F 1.8 °F 1023.2 in Calm     83 % 0.0 in 0.0 W/m2 CLR
02:05 4.4 °F 2.0 °F 1023.2 in Calm     84 % 0.0 in 0.0 W/m2 CLR
02:10 4.4 °F 1.9 °F 1023.6 in Calm     84 % 0.0 in 0.0 W/m2 CLR
02:15 4.3 °F 1.8 °F 1023.2 in Calm     84 % 0.0 in 0.0 W/m2 CLR
02:20 4.2 °F 1.7 °F 1023.6 in Calm     84 % 0.0 in 0.0 W/m2 CLR
02:25 4.1 °F 1.8 °F 1023.6 in Calm     85 % 0.0 in 0.0 W/m2 CLR
02:30 4.1 °F 1.8 °F 1023.6 in Calm     85 % 0.0 in 0.0 W/m2 CLR
02:35 3.9 °F 1.7 °F 1023.2 in Calm     85 % 0.0 in 0.0 W/m2 CLR
02:40 4.0 °F 1.7 °F 1023.2 in Calm     85 % 0.0 in 0.0 W/m2 CLR
02:45 4.0 °F 1.6 °F 1023.2 in Calm     84 % 0.0 in 0.0 W/m2 CLR
02:50 3.9 °F 1.4 °F 1023.2 in Calm     84 % 0.0 in 0.0 W/m2 CLR
02:55 3.8 °F 1.4 °F 1023.2 in Calm     84 % 0.0 in 0.0 W/m2 CLR
03:00 3.8 °F 1.5 °F 1023.2 in Calm     85 % 0.0 in 0.0 W/m2 CLR
03:05 3.7 °F 1.4 °F 1023.2 in Calm     85 % 0.0 in 0.0 W/m2 CLR
03:10 3.6 °F 1.3 °F 1023.2 in Calm     85 % 0.0 in 0.0 W/m2 CLR
03:15 3.6 °F 1.3 °F 1023.2 in Calm     85 % 0.0 in 0.0 W/m2 CLR
03:20 3.6 °F 1.3 °F 1023.2 in Calm     85 % 0.0 in 0.0 W/m2 CLR
03:25 3.5 °F 1.2 °F 1023.2 in Calm     85 % 0.0 in 0.0 W/m2 CLR
03:30 3.4 °F 1.3 °F 1023.2 in Calm     86 % 0.0 in 0.0 W/m2 CLR
03:35 3.3 °F 1.2 °F 1023.2 in Calm     86 % 0.0 in 0.0 W/m2 CLR
03:40 3.3 °F 1.2 °F 1023.2 in Calm     86 % 0.0 in 0.0 W/m2 CLR
03:45 3.2 °F 1.1 °F 1023.2 in Calm     86 % 0.0 in 0.0 W/m2 CLR
03:50 3.2 °F 1.1 °F 1023.2 in Calm     86 % 0.0 in 0.0 W/m2 CLR
03:55 3.1 °F 1.0 °F 1023.2 in Calm     86 % 0.0 in 0.0 W/m2 CLR
04:00 3.3 °F 1.2 °F 1023.2 in WSW 5.6 mph 5.6 mph 86 % 0.0 in 0.0 W/m2 CLR
04:05 3.5 °F 1.2 °F 1023.2 in Calm     85 % 0.0 in 0.0 W/m2 CLR
04:10 3.6 °F 1.3 °F 1023.2 in Calm     85 % 0.0 in 0.0 W/m2 CLR
04:15 3.4 °F 1.0 °F 1023.2 in Calm     84 % 0.0 in 0.0 W/m2 CLR
04:20 3.3 °F 0.9 °F 1023.2 in Calm     84 % 0.0 in 0.0 W/m2 CLR
04:25 3.2 °F 0.9 °F 1023.2 in Calm     85 % 0.0 in 0.0 W/m2 CLR
04:30 3.1 °F 0.9 °F 1023.2 in Calm     86 % 0.0 in 0.0 W/m2 CLR
04:35 2.9 °F 0.8 °F 1023.2 in Calm     86 % 0.0 in 0.0 W/m2 CLR
04:40 2.8 °F 0.7 °F 1023.2 in Calm     86 % 0.0 in 0.0 W/m2 CLR
04:45 2.7 °F 0.6 °F 1023.2 in Calm     86 % 0.0 in 0.0 W/m2 CLR
04:50 2.7 °F 0.6 °F 1023.2 in Calm     86 % 0.0 in 0.0 W/m2 CLR
04:55 2.6 °F 0.7 °F 1023.2 in Calm     87 % 0.0 in 0.0 W/m2 CLR
05:00 2.6 °F 0.6 °F 1023.2 in Calm     87 % 0.0 in 0.0 W/m2 CLR
05:05 2.5 °F 0.6 °F 1023.2 in Calm     87 % 0.0 in 0.0 W/m2 CLR
05:10 2.4 °F 0.5 °F 1023.2 in Calm     87 % 0.0 in 0.0 W/m2 CLR
05:15 2.4 °F 0.5 °F 1023.6 in Calm     87 % 0.0 in 0.0 W/m2 CLR
05:20 2.5 °F 0.6 °F 1023.6 in Calm     87 % 0.0 in 0.0 W/m2 CLR
05:25 2.4 °F 0.4 °F 1023.6 in Calm     87 % 0.0 in 0.0 W/m2 CLR
05:30 2.3 °F 0.4 °F 1023.6 in Calm     87 % 0.0 in 0.0 W/m2 CLR
05:35 2.2 °F 0.3 °F 1023.6 in Calm     87 % 0.0 in 0.0 W/m2 CLR
05:40 2.2 °F 0.2 °F 1023.6 in Calm     87 % 0.0 in 0.0 W/m2 CLR
05:45 2.1 °F 0.3 °F 1023.6 in Calm     88 % 0.0 in 0.0 W/m2 CLR
05:50 2.1 °F 0.3 °F 1023.6 in Calm     88 % 0.0 in 0.0 W/m2 CLR
05:55 2.1 °F 0.3 °F 1023.6 in SW 5.6 mph 5.6 mph 88 % 0.0 in 0.0 W/m2 CLR
06:00 2.1 °F 0.3 °F 1023.6 in WSW 5.6 mph 5.6 mph 88 % 0.0 in 0.0 W/m2 CLR
06:05 2.1 °F 0.3 °F 1023.6 in SW 5.6 mph 5.6 mph 88 % 0.0 in 0.0 W/m2 CLR
06:10 2.2 °F 0.2 °F 1023.6 in SSW 3.7 mph 3.7 mph 87 % 0.0 in 0.0 W/m2 CLR
06:15 2.2 °F 0.2 °F 1023.6 in Calm   0.3 mph 87 % 0.0 in 0.0 W/m2 CLR
06:20 2.1 °F 0.2 °F 1023.6 in Calm     87 % 0.0 in 0.0 W/m2 CLR
06:25 2.1 °F 0.1 °F 1023.6 in Calm     87 % 0.0 in 0.0 W/m2 CLR
06:30 2.1 °F 0.1 °F 1023.6 in Calm     87 % 0.0 in 0.0 W/m2 CLR
06:35 2.0 °F 0.1 °F 1023.6 in Calm     87 % 0.0 in 0.0 W/m2 CLR
06:40 1.9 °F 0.0 °F 1023.9 in Calm     87 % 0.0 in 0.0 W/m2 CLR
06:45 1.9 °F -0.1 °F 1023.9 in Calm     87 % 0.0 in 0.0 W/m2 CLR
06:50 1.8 °F -0.1 °F 1023.9 in Calm     87 % 0.0 in 0.0 W/m2 CLR
06:55 1.9 °F 0.1 °F 1023.9 in SW 5.6 mph 5.6 mph 88 % 0.0 in 0.0 W/m2 CLR
07:00 2.1 °F 0.1 °F 1023.9 in Calm     87 % 0.0 in 0.0 W/m2 OVC
07:05 2.1 °F 0.1 °F 1023.9 in Calm     87 % 0.0 in 0.0 W/m2 OVC
07:10 2.0 °F 0.1 °F 1024.3 in Calm     87 % 0.0 in 5.0 W/m2 OVC
07:15 2.0 °F 0.1 °F 1024.3 in Calm     87 % 0.0 in 9.0 W/m2 BKN
07:20 1.9 °F 0.0 °F 1024.3 in Calm     87 % 0.0 in 11.0 W/m2 BKN
07:25 1.9 °F 0.0 °F 1024.3 in Calm     87 % 0.0 in 12.0 W/m2 BKN
07:30 1.9 °F 0.0 °F 1024.3 in WSW 1.9 mph   87 % 0.0 in 14.0 W/m2 BKN
07:35 2.0 °F 0.1 °F 1024.3 in Calm     87 % 0.0 in 19.0 W/m2 BKN
07:40 2.2 °F 0.4 °F 1024.3 in Calm     88 % 0.0 in 30.0 W/m2 BKN
07:45 2.3 °F 0.4 °F 1024.3 in Calm     87 % 0.0 in 42.0 W/m2 BKN
07:50 2.6 °F 0.8 °F 1024.3 in Calm     88 % 0.0 in 60.0 W/m2 SCT
07:55 2.8 °F 0.9 °F 1024.3 in Calm     87 % 0.0 in 76.0 W/m2 FEW
08:00 3.2 °F 1.3 °F 1024.6 in Calm     87 % 0.0 in 88.0 W/m2 CLR
08:05 3.4 °F 1.2 °F 1024.6 in Calm     85 % 0.0 in 100.0 W/m2 FEW
08:10 3.7 °F 1.4 °F 1024.6 in Calm     85 % 0.0 in 116.0 W/m2 CLR
08:11 3.7 °F 1.4 °F 1024.6 in Calm     85 % 0.0 in 118.0 W/m2 CLR
08:16 4.0 °F 1.7 °F 1024.6 in Calm     85 % 0.0 in 91.0 W/m2 CLR
08:21 4.5 °F 2.1 °F 1024.6 in Calm     84 % 0.0 in 142.0 W/m2 CLR
08:26 4.8 °F 2.0 °F 1024.3 in Calm     82 % 0.0 in 174.0 W/m2 CLR
08:31 5.0 °F 1.8 °F 1024.3 in Calm     80 % 0.0 in 192.0 W/m2 CLR
08:36 5.2 °F 1.8 °F 1024.3 in Calm     79 % 0.0 in 211.0 W/m2 CLR
08:41 5.7 °F 2.3 °F 1024.6 in Calm     79 % 0.0 in 230.0 W/m2 CLR
08:46 6.3 °F 2.6 °F 1024.3 in Calm     77 % 0.0 in 251.0 W/m2 CLR
08:51 7.0 °F 2.9 °F 1024.6 in Calm     75 % 0.0 in 267.0 W/m2 CLR
08:56 7.7 °F 2.7 °F 1024.6 in Calm     71 % 0.0 in 283.0 W/m2 CLR
09:01 8.2 °F 2.6 °F 1024.6 in Calm     68 % 0.0 in 297.0 W/m2 CLR
09:06 8.7 °F 3.1 °F 1024.6 in Calm     68 % 0.0 in 316.0 W/m2 CLR
09:11 9.2 °F 3.4 °F 1024.3 in Calm     67 % 0.0 in 332.0 W/m2 CLR
09:16 9.7 °F 3.2 °F 1024.3 in Calm     64 % 0.0 in 348.0 W/m2 CLR
09:21 10.1 °F 3.2 °F 1024.3 in Calm     62 % 0.0 in 362.0 W/m2 CLR
09:26 10.4 °F 3.2 °F 1024.3 in Calm     61 % 0.0 in 380.0 W/m2 CLR
09:31 10.9 °F 4.6 °F 1024.3 in Calm     65 % 0.0 in 394.0 W/m2 CLR
09:36 11.3 °F 4.3 °F 1024.3 in Calm     62 % 0.0 in 408.0 W/m2 CLR
09:37 11.4 °F 3.9 °F 1024.3 in Calm     60 % 0.0 in 408.0 W/m2 CLR
09:42 11.6 °F 3.3 °F 1024.3 in Calm     57 % 0.0 in 427.0 W/m2 CLR
09:47 11.9 °F 2.9 °F 1024.3 in Calm     54 % 0.0 in 441.0 W/m2 CLR
09:52 12.4 °F 2.0 °F 1024.3 in Calm     49 % 0.0 in 457.0 W/m2 CLR
09:57 13.1 °F 2.6 °F 1024.3 in Calm     49 % 0.0 in 473.0 W/m2 CLR
10:02 13.5 °F 2.7 °F 1024.3 in Calm     48 % 0.0 in 485.0 W/m2 CLR
10:07 13.8 °F 2.1 °F 1024.3 in Calm     45 % 0.0 in 499.0 W/m2 CLR
10:12 14.1 °F 2.3 °F 1024.3 in Calm     45 % 0.0 in 513.0 W/m2 CLR
10:17 14.2 °F 2.7 °F 1024.3 in ENE 3.7 mph   46 % 0.0 in 527.0 W/m2 CLR
10:22 14.2 °F 3.0 °F 1024.3 in Calm     47 % 0.0 in 540.0 W/m2 CLR
10:27 14.3 °F 2.8 °F 1024.3 in Calm     46 % 0.0 in 550.0 W/m2 CLR
10:28 14.4 °F 2.9 °F 1024.3 in Calm     46 % 0.0 in 550.0 W/m2 CLR
10:33 14.6 °F 3.4 °F 1024.3 in Calm     47 % 0.0 in 564.0 W/m2 CLR
10:38 14.9 °F 3.1 °F 1024.3 in ENE 3.7 mph 3.7 mph 45 % 0.0 in 577.0 W/m2 CLR
10:43 15.1 °F 2.6 °F 1024.3 in Calm     43 % 0.0 in 589.0 W/m2 CLR
10:48 15.3 °F 3.4 °F 1024.3 in Calm     45 % 0.0 in 599.0 W/m2 CLR
10:53 15.6 °F 3.1 °F 1024.3 in ENE 3.7 mph 3.7 mph 43 % 0.0 in 612.0 W/m2 CLR
10:58 15.7 °F 3.1 °F 1023.9 in ENE 6.4 mph 6.4 mph 43 % 0.0 in 621.0 W/m2 CLR
11:03 15.8 °F 1.9 °F 1023.9 in ENE 5.6 mph   39 % 0.0 in 631.0 W/m2 CLR
11:08 16.0 °F 2.4 °F 1023.9 in ENE 6.4 mph 6.4 mph 40 % 0.0 in 640.0 W/m2 CLR
11:13 16.1 °F 1.0 °F 1023.9 in Calm     36 % 0.0 in 652.0 W/m2 CLR
11:18 16.3 °F 1.6 °F 1023.9 in East 3.7 mph 3.7 mph 37 % 0.0 in 661.0 W/m2 CLR
11:23 16.3 °F 1.2 °F 1023.9 in ENE 5.6 mph 5.6 mph 36 % 0.0 in 671.0 W/m2 CLR
11:28 16.6 °F 2.2 °F 1023.9 in ENE 5.6 mph 5.6 mph 38 % 0.0 in 670.0 W/m2 CLR
11:33 16.7 °F 1.6 °F 1023.9 in East 5.6 mph 5.6 mph 36 % 0.0 in 687.0 W/m2 CLR
11:38 16.7 °F 1.5 °F 1023.6 in NE 5.6 mph 5.6 mph 36 % 0.0 in 693.0 W/m2 CLR
11:43 16.8 °F 2.0 °F 1023.6 in Calm     37 % 0.0 in 705.0 W/m2 CLR
11:48 17.1 °F 2.6 °F 1023.6 in ENE 9.3 mph 9.3 mph 38 % 0.0 in 707.0 W/m2 CLR
11:53 17.3 °F 2.8 °F 1023.6 in ENE 5.6 mph 5.6 mph 38 % 0.0 in 715.0 W/m2 CLR
11:58 17.4 °F 2.9 °F 1023.6 in ENE 7.4 mph 7.4 mph 38 % 0.0 in 722.0 W/m2 CLR
12:03 17.5 °F 2.6 °F 1023.6 in Calm     37 % 0.0 in 731.0 W/m2 CLR
12:08 17.6 °F 2.7 °F 1023.6 in NE 3.7 mph 3.7 mph 37 % 0.0 in 729.0 W/m2 CLR
12:13 17.8 °F 2.6 °F 1023.2 in NE 8.0 mph 8.0 mph 36 % 0.0 in 737.0 W/m2 CLR
12:18 17.9 °F 1.8 °F 1023.2 in Calm     34 % 0.0 in 738.0 W/m2 CLR
12:23 18.2 °F 3.2 °F 1023.2 in NE 7.4 mph 7.4 mph 37 % 0.0 in 745.0 W/m2 CLR
12:28 18.3 °F 2.1 °F 1023.2 in Calm     34 % 0.0 in 751.0 W/m2 CLR
12:33 18.4 °F 2.7 °F 1023.2 in ENE 6.4 mph 6.4 mph 35 % 0.0 in 751.0 W/m2 CLR
12:38 18.6 °F 1.9 °F 1023.2 in Calm     33 % 0.0 in 758.0 W/m2 CLR
12:43 18.8 °F 2.6 °F 1023.2 in NNE 7.4 mph 7.4 mph 34 % 0.0 in 763.0 W/m2 CLR
12:48 18.9 °F 3.1 °F 1023.2 in ENE 9.3 mph 9.3 mph 35 % 0.0 in 761.0 W/m2 CLR
12:53 18.9 °F 2.7 °F 1022.9 in NE 8.0 mph 8.0 mph 34 % 0.0 in 768.0 W/m2 CLR
12:58 19.2 °F 1.6 °F 1022.9 in Calm     31 % 0.0 in 765.0 W/m2 CLR
13:03 19.3 °F 2.2 °F 1022.9 in NE 9.3 mph 9.3 mph 32 % 0.0 in 770.0 W/m2 CLR
13:08 19.4 °F 2.3 °F 1022.9 in ENE 9.3 mph 9.3 mph 32 % 0.0 in 770.0 W/m2 CLR
13:13 19.3 °F 2.2 °F 1022.6 in North 8.0 mph 8.0 mph 32 % 0.0 in 770.0 W/m2 CLR
13:18 19.3 °F 2.2 °F 1022.6 in North 5.6 mph 5.6 mph 32 % 0.0 in 766.0 W/m2 CLR
13:23 19.4 °F 2.3 °F 1022.6 in North 4.8 mph 4.8 mph 32 % 0.0 in 766.0 W/m2 CLR
13:28 19.4 °F 2.7 °F 1022.6 in ENE 6.4 mph 6.4 mph 33 % 0.0 in 766.0 W/m2 CLR
13:33 19.6 °F 3.3 °F 1022.6 in Calm     34 % 0.0 in 765.0 W/m2 CLR
13:38 19.8 °F 2.2 °F 1022.6 in ENE 3.2 mph 3.2 mph 31 % 0.0 in 763.0 W/m2 CLR
13:43 20.1 °F 2.4 °F 1022.6 in NE 9.3 mph 9.3 mph 31 % 0.0 in 759.0 W/m2 CLR
13:48 20.1 °F 2.4 °F 1022.2 in NNE 11.1 mph 11.1 mph 31 % 0.0 in 758.0 W/m2 CLR
13:53 20.0 °F 2.8 °F 1022.2 in NE 11.3 mph 11.3 mph 32 % 0.0 in 752.0 W/m2 CLR
13:58 20.0 °F 2.3 °F 1022.2 in NNE 5.6 mph 5.6 mph 31 % 0.0 in 749.0 W/m2 CLR
14:03 20.0 °F 3.2 °F 1022.2 in NNW 9.3 mph 9.3 mph 33 % 0.0 in 745.0 W/m2 CLR
14:08 19.9 °F 4.0 °F 1022.2 in NE 14.8 mph 14.8 mph 35 % 0.0 in 738.0 W/m2 CLR
14:13 19.9 °F 3.9 °F 1021.9 in NNE 12.9 mph 12.9 mph 35 % 0.0 in 735.0 W/m2 CLR
14:18 19.9 °F 3.6 °F 1021.9 in ENE 16.7 mph 16.7 mph 34 % 0.0 in 729.0 W/m2 CLR
14:23 20.1 °F 3.7 °F 1021.9 in NE 9.7 mph 9.7 mph 34 % 0.0 in 722.0 W/m2 CLR
14:28 20.3 °F 3.1 °F 1021.9 in ENE 14.8 mph 14.8 mph 32 % 0.0 in 715.0 W/m2 CLR
14:33 20.3 °F 3.1 °F 1021.9 in NNE 14.8 mph 14.8 mph 32 % 0.0 in 710.0 W/m2 CLR
14:38 20.4 °F 2.2 °F 1021.6 in NNE 16.7 mph 16.7 mph 30 % 0.0 in 701.0 W/m2 CLR
14:43 20.4 °F 2.7 °F 1021.6 in NE 18.5 mph 18.5 mph 31 % 0.0 in 694.0 W/m2 CLR
14:48 20.4 °F 2.7 °F 1021.6 in North 11.1 mph 11.1 mph 31 % 0.0 in 689.0 W/m2 CLR
14:53 20.4 °F 3.2 °F 1021.6 in NNE 9.3 mph 9.3 mph 32 % 0.0 in 679.0 W/m2 CLR
14:58 20.7 °F 3.4 °F 1021.6 in NE 16.7 mph 16.7 mph 32 % 0.0 in 671.0 W/m2 CLR
15:03 20.8 °F 3.0 °F 1021.2 in NE 18.5 mph 18.5 mph 31 % 0.0 in 663.0 W/m2 CLR
15:08 20.7 °F 2.5 °F 1021.2 in North 5.6 mph 5.6 mph 30 % 0.0 in 652.0 W/m2 CLR
15:13 20.8 °F 2.6 °F 1021.2 in North 13.0 mph 13.0 mph 30 % 0.0 in 640.0 W/m2 CLR
15:18 21.0 °F 2.7 °F 1021.2 in NE 20.4 mph 20.4 mph 30 % 0.0 in 631.0 W/m2 CLR
15:19 21.0 °F 2.7 °F 1021.2 in ENE 20.4 mph 20.4 mph 30 % 0.0 in 631.0 W/m2 CLR
15:24 21.1 °F 2.8 °F 1021.2 in ENE 5.6 mph 5.6 mph 30 % 0.0 in 622.0 W/m2 CLR
15:29 21.2 °F 1.9 °F 1021.2 in ENE 11.3 mph 11.3 mph 28 % 0.0 in 610.0 W/m2 CLR
15:34 21.1 °F 2.4 °F 1020.9 in NE 16.7 mph 16.7 mph 29 % 0.0 in 599.0 W/m2 CLR
15:39 21.1 °F 1.4 °F 1020.9 in NE 16.7 mph 16.7 mph 27 % 0.0 in 587.0 W/m2 CLR
15:44 21.2 °F 1.4 °F 1020.9 in ENE 14.8 mph 14.8 mph 27 % 0.0 in 577.0 W/m2 CLR
15:49 21.2 °F 1.4 °F 1020.9 in NE 18.5 mph 18.5 mph 27 % 0.0 in 566.0 W/m2 CLR
15:54 21.2 °F 1.4 °F 1020.9 in ENE 16.7 mph 16.7 mph 27 % 0.0 in 552.0 W/m2 CLR
15:59 21.3 °F 2.0 °F 1020.9 in NE 3.7 mph 5.8 mph 28 % 0.0 in 540.0 W/m2 CLR
16:04 21.4 °F 1.6 °F 1020.9 in NE 16.1 mph 16.1 mph 27 % 0.0 in 527.0 W/m2 CLR
16:09 21.4 °F 1.7 °F 1020.9 in East 7.4 mph 7.4 mph 27 % 0.0 in 517.0 W/m2 CLR
16:14 21.4 °F -0.1 °F 1020.9 in ESE 12.9 mph 12.9 mph 24 % 0.0 in 501.0 W/m2 CLR
16:19 21.3 °F -0.1 °F 1020.9 in ENE 5.6 mph 5.6 mph 24 % 0.0 in 487.0 W/m2 CLR
16:24 21.3 °F -0.1 °F 1020.5 in East 9.3 mph 9.3 mph 24 % 0.0 in 475.0 W/m2 CLR
16:29 21.3 °F -0.1 °F 1020.5 in East 5.6 mph 5.6 mph 24 % 0.0 in 461.0 W/m2 CLR
16:34 21.4 °F -1.2 °F 1020.5 in East 7.4 mph 7.6 mph 22 % 0.0 in 443.0 W/m2 CLR
16:39 21.3 °F -0.7 °F 1020.5 in ENE 14.8 mph 14.8 mph 23 % 0.0 in 427.0 W/m2 CLR
16:44 21.3 °F -1.3 °F 1020.5 in East 9.7 mph 9.7 mph 22 % 0.0 in 413.0 W/m2 CLR
16:49 21.2 °F -1.4 °F 1020.5 in ESE 5.6 mph 5.6 mph 22 % 0.0 in 399.0 W/m2 CLR
16:54 21.1 °F -0.3 °F 1020.5 in East 8.0 mph 8.0 mph 24 % 0.0 in 380.0 W/m2 CLR
16:59 20.9 °F -0.4 °F 1020.5 in NE 9.3 mph 9.3 mph 24 % 0.0 in 366.0 W/m2 CLR
17:04 21.0 °F -0.3 °F 1020.5 in ENE 9.3 mph 9.3 mph 24 % 0.0 in 350.0 W/m2 CLR
17:09 21.0 °F 0.7 °F 1020.5 in ENE 9.3 mph 9.3 mph 26 % 0.0 in 334.0 W/m2 CLR
17:14 20.9 °F 1.2 °F 1020.5 in East 13.0 mph 13.0 mph 27 % 0.0 in 316.0 W/m2 CLR
17:19 20.8 °F 1.6 °F 1020.5 in ESE 11.1 mph 11.1 mph 28 % 0.0 in 297.0 W/m2 CLR
17:24 20.7 °F 1.6 °F 1020.5 in ESE 9.7 mph 9.7 mph 28 % 0.0 in 281.0 W/m2 CLR
17:29 20.6 °F 1.9 °F 1020.5 in East 9.3 mph 9.3 mph 29 % 0.0 in 264.0 W/m2 CLR
17:34 20.5 °F 2.3 °F 1020.5 in East 9.7 mph 9.7 mph 30 % 0.0 in 248.0 W/m2 CLR
17:39 20.4 °F 1.7 °F 1020.5 in SE 9.7 mph 9.7 mph 29 % 0.0 in 227.0 W/m2 CLR
17:44 20.2 °F 1.6 °F 1020.5 in ESE 11.1 mph 11.1 mph 29 % 0.0 in 209.0 W/m2 CLR
17:49 20.2 °F 2.5 °F 1020.5 in ESE 5.6 mph 5.6 mph 31 % 0.0 in 190.0 W/m2 CLR
17:54 20.1 °F 2.0 °F 1020.9 in ESE 8.0 mph 8.0 mph 30 % 0.0 in 171.0 W/m2 CLR
17:59 19.9 °F 2.3 °F 1020.9 in ESE 9.3 mph 9.3 mph 31 % 0.0 in 151.0 W/m2 CLR
18:04 19.8 °F 2.6 °F 1020.5 in SE 13.0 mph 13.0 mph 32 % 0.0 in 134.0 W/m2 CLR
18:09 19.7 °F 2.5 °F 1020.9 in ESE 11.1 mph 11.1 mph 32 % 0.0 in 116.0 W/m2 CLR
18:14 19.6 °F 2.4 °F 1020.9 in SE 8.0 mph 8.0 mph 32 % 0.0 in 98.0 W/m2 CLR
18:19 19.4 °F 2.3 °F 1020.9 in ESE 8.0 mph 8.0 mph 32 % 0.0 in 84.0 W/m2 FEW
18:24 19.3 °F 2.7 °F 1020.9 in SE 5.6 mph 5.6 mph 33 % 0.0 in 65.0 W/m2 SCT
18:29 19.2 °F 2.6 °F 1020.9 in ESE 5.6 mph 5.6 mph 33 % 0.0 in 51.0 W/m2 SCT
18:34 19.1 °F 2.8 °F 1020.9 in ESE 5.6 mph 5.6 mph 34 % 0.0 in 39.0 W/m2 BKN
18:39 18.9 °F 2.7 °F 1020.9 in Calm     34 % 0.0 in 30.0 W/m2 BKN
18:44 18.7 °F 2.9 °F 1020.9 in Calm     35 % 0.0 in 19.0 W/m2 BKN
18:49 18.6 °F 2.8 °F 1020.9 in Calm     35 % 0.0 in 14.0 W/m2 BKN
18:50 18.5 °F 2.7 °F 1020.9 in Calm     35 % 0.0 in 14.0 W/m2 BKN
18:55 18.3 °F 3.0 °F 1020.9 in Calm     36 % 0.0 in 12.0 W/m2 BKN
19:00 18.1 °F 2.8 °F 1020.9 in Calm     36 % 0.0 in 9.0 W/m2 BKN
19:05 17.8 °F 2.6 °F 1020.9 in Calm     36 % 0.0 in 7.0 W/m2 BKN
19:10 17.6 °F 3.1 °F 1020.9 in Calm     38 % 0.0 in 0.0 W/m2 OVC
19:15 17.4 °F 2.9 °F 1021.2 in Calm     38 % 0.0 in 0.0 W/m2 OVC
19:20 17.2 °F 2.7 °F 1021.2 in Calm     38 % 0.0 in 0.0 W/m2 CLR
19:25 16.9 °F 3.9 °F 1021.2 in Calm     42 % 0.0 in 0.0 W/m2 CLR
19:30 16.4 °F 3.4 °F 1021.2 in Calm     42 % 0.0 in 0.0 W/m2 CLR
19:35 16.1 °F 3.4 °F 1021.2 in Calm     43 % 0.0 in 0.0 W/m2 CLR
19:40 15.8 °F 3.8 °F 1021.6 in Calm     45 % 0.0 in 0.0 W/m2 CLR
19:45 15.4 °F 4.8 °F 1021.6 in Calm     49 % 0.0 in 0.0 W/m2 CLR
19:50 14.9 °F 4.3 °F 1021.6 in Calm     49 % 0.0 in 0.0 W/m2 CLR
19:51 14.8 °F 4.4 °F 1021.6 in Calm     50 % 0.0 in 0.0 W/m2 CLR
19:56 14.2 °F 4.2 °F 1021.6 in Calm     51 % 0.0 in 0.0 W/m2 CLR
20:01 13.7 °F 4.3 °F 1021.6 in Calm     53 % 0.0 in 0.0 W/m2 CLR
20:06 13.4 °F 4.5 °F 1021.6 in Calm     55 % 0.0 in 0.0 W/m2 CLR
20:11 12.9 °F 4.6 °F 1021.6 in Calm     57 % 0.0 in 0.0 W/m2 CLR
20:16 12.4 °F 4.6 °F 1021.6 in Calm     59 % 0.0 in 0.0 W/m2 CLR
20:21 11.9 °F 4.7 °F 1021.6 in Calm     61 % 0.0 in 0.0 W/m2 CLR
20:26 11.7 °F 4.6 °F 1021.9 in Calm     62 % 0.0 in 0.0 W/m2 CLR
20:31 11.3 °F 4.6 °F 1021.9 in Calm     63 % 0.0 in 0.0 W/m2 CLR
20:36 11.1 °F 4.5 °F 1021.9 in Calm     64 % 0.0 in 0.0 W/m2 CLR
20:41 10.8 °F 4.3 °F 1021.9 in Calm     64 % 0.0 in 0.0 W/m2 CLR
20:46 10.6 °F 4.3 °F 1021.9 in Calm     65 % 0.0 in 0.0 W/m2 CLR
20:51 10.3 °F 4.3 °F 1021.9 in Calm     66 % 0.0 in 0.0 W/m2 CLR
20:56 10.2 °F 4.3 °F 1021.9 in Calm     67 % 0.0 in 0.0 W/m2 CLR
21:01 10.0 °F 4.3 °F 1021.9 in Calm     68 % 0.0 in 0.0 W/m2 CLR
21:06 9.7 °F 4.3 °F 1022.2 in Calm     69 % 0.0 in 0.0 W/m2 CLR
21:11 9.4 °F 4.4 °F 1022.2 in Calm     71 % 0.0 in 0.0 W/m2 CLR
21:16 9.2 °F 4.4 °F 1022.2 in Calm     72 % 0.0 in 0.0 W/m2 CLR
21:21 9.1 °F 4.3 °F 1022.2 in Calm     72 % 0.0 in 0.0 W/m2 CLR
21:26 8.9 °F 4.4 °F 1022.2 in Calm     73 % 0.0 in 0.0 W/m2 CLR
21:31 8.9 °F 4.3 °F 1022.2 in Calm     73 % 0.0 in 0.0 W/m2 CLR
21:36 8.7 °F 4.2 °F 1022.6 in Calm     73 % 0.0 in 0.0 W/m2 CLR
21:41 8.5 °F 4.1 °F 1022.6 in Calm     74 % 0.0 in 0.0 W/m2 CLR
21:46 8.4 °F 4.0 °F 1022.6 in Calm     74 % 0.0 in 0.0 W/m2 CLR
21:51 8.2 °F 4.1 °F 1022.6 in Calm     75 % 0.0 in 0.0 W/m2 CLR
21:57 8.1 °F 3.9 °F 1022.6 in Calm     75 % 0.0 in 0.0 W/m2 CLR
22:02 7.9 °F 3.9 °F 1022.6 in Calm     76 % 0.0 in 0.0 W/m2 CLR
22:07 7.8 °F 3.8 °F 1022.6 in Calm     76 % 0.0 in 0.0 W/m2 CLR
22:12 7.7 °F 3.9 °F 1022.6 in Calm     77 % 0.0 in 0.0 W/m2 CLR
22:17 7.6 °F 3.8 °F 1022.6 in Calm     77 % 0.0 in 0.0 W/m2 CLR
22:22 7.4 °F 3.7 °F 1022.6 in Calm     77 % 0.0 in 0.0 W/m2 CLR
22:27 7.3 °F 3.7 °F 1022.9 in Calm     78 % 0.0 in 0.0 W/m2 CLR
22:32 7.2 °F 3.8 °F 1022.9 in Calm     79 % 0.0 in 0.0 W/m2 CLR
22:37 7.1 °F 3.7 °F 1022.6 in Calm     79 % 0.0 in 0.0 W/m2 CLR
22:42 7.0 °F 3.6 °F 1022.9 in Calm     79 % 0.0 in 0.0 W/m2 CLR
22:47 7.1 °F 3.5 °F 1022.9 in Calm     78 % 0.0 in 0.0 W/m2 CLR
22:52 7.0 °F 3.4 °F 1022.9 in Calm     78 % 0.0 in 0.0 W/m2 CLR
22:57 6.8 °F 3.4 °F 1022.6 in Calm     79 % 0.0 in 0.0 W/m2 CLR
23:02 6.6 °F 3.3 °F 1022.9 in Calm     80 % 0.0 in 0.0 W/m2 CLR
23:07 6.5 °F 3.3 °F 1022.9 in Calm     80 % 0.0 in 0.0 W/m2 CLR
23:12 6.4 °F 3.2 °F 1022.6 in Calm     80 % 0.0 in 0.0 W/m2 CLR
23:17 6.4 °F 3.2 °F 1022.9 in Calm     80 % 0.0 in 0.0 W/m2 CLR
23:18 6.4 °F 3.2 °F 1022.9 in Calm     80 % 0.0 in 0.0 W/m2 CLR
23:23 6.3 °F 3.1 °F 1022.9 in Calm     80 % 0.0 in 0.0 W/m2 CLR
23:28 6.3 °F 3.1 °F 1022.9 in Calm     80 % 0.0 in 0.0 W/m2 CLR
23:33 6.2 °F 3.2 °F 1022.9 in Calm     81 % 0.0 in 0.0 W/m2 CLR
23:38 6.1 °F 3.1 °F 1022.9 in Calm     81 % 0.0 in 0.0 W/m2 CLR
23:43 6.1 °F 3.1 °F 1022.9 in Calm     81 % 0.0 in 0.0 W/m2 CLR
23:48 6.0 °F 3.2 °F 1022.9 in Calm     82 % 0.0 in 0.0 W/m2 CLR
23:53 5.9 °F 3.1 °F 1022.9 in Calm     82 % 0.0 in 0.0 W/m2 CLR
23:58 5.7 °F 2.9 °F 1022.9 in Calm     82 % 0.0 in 0.0 W/m2 CLR
Lo Temps de Massalio
Compliments of Weather Underground - 1.25 mb